When you browse on this site, cookies collect data to enhance your experience and personalize the content and advertising you see.
Visit our Privacy Policy to learn more. By continuing to use the site, you agree to this use of cookies and data.
  • în România
  • Lista ţărilor
  • Pe 7 zile
  • Temperatura apei
  • Meteo pe hartă
  • Widget-uri
  • user-avatar
    Intrare

    Meteo pe oră la Ras al-Chajma

    Astăzi, 28 Mai, Joi

    Timp Temperatura Precipitaţii Vânt Presiune Umiditate
    00:00 +35°C° 0 mm 1 m/s 751 mmHg 39%
    01:00 +34°C° 0 mm 1 m/s 751 mmHg 41%
    02:00 +32°C° 0 mm 0 m/s 751 mmHg 40%
    03:00 +32°C° 0 mm 0 m/s 750 mmHg 38%
    04:00 +31°C° 0 mm 0 m/s 750 mmHg 37%
    05:00 +34°C° 0 mm 1 m/s 751 mmHg 35%
    06:00 +35°C° 0 mm 1 m/s 751 mmHg 34%
    07:00 +37°C° 0 mm 2 m/s 751 mmHg 32%
    08:00 +39°C° 0 mm 2 m/s 751 mmHg 28%
    09:00 +41°C° 0 mm 2 m/s 751 mmHg 24%
    10:00 +43°C° 0 mm 3 m/s 751 mmHg 20%
    11:00 +43°C° 0 mm 3 m/s 751 mmHg 22%
    12:00 +43°C° 0 mm 3 m/s 751 mmHg 24%
    13:00 +42°C° 0 mm 4 m/s 750 mmHg 26%
    14:00 +42°C° 0 mm 3 m/s 750 mmHg 25%
    15:00 +42°C° 0 mm 3 m/s 749 mmHg 25%
    16:00 +42°C° 0 mm 3 m/s 749 mmHg 25%
    17:00 +41°C° 0 mm 2 m/s 749 mmHg 25%
    18:00 +40°C° 0 mm 2 m/s 749 mmHg 26%
    19:00 +39°C° 0 mm 1 m/s 749 mmHg 27%
    20:00 +37°C° 0 mm 1 m/s 749 mmHg 28%
    21:00 +36°C° 0 mm 1 m/s 749 mmHg 30%
    22:00 +35°C° 0 mm 1 m/s 750 mmHg 32%
    23:00 +35°C° 0 mm 1 m/s 749 mmHg 33%

    Mâine, 29 Mai, Vineri

    Timp Temperatura Precipitaţii Vânt Presiune Umiditate
    00:00 +35°C° 0 mm 1 m/s 749 mmHg 34%
    01:00 +34°C° 0 mm 1 m/s 749 mmHg 35%
    02:00 +34°C° 0 mm 1 m/s 749 mmHg 32%
    03:00 +34°C° 0 mm 1 m/s 749 mmHg 29%
    04:00 +35°C° 0 mm 1 m/s 749 mmHg 27%
    05:00 +36°C° 0 mm 1 m/s 749 mmHg 25%
    06:00 +37°C° 0 mm 1 m/s 749 mmHg 22%
    07:00 +40°C° 0 mm 1 m/s 750 mmHg 20%
    08:00 +41°C° 0 mm 1 m/s 750 mmHg 20%
    09:00 +41°C° 0 mm 2 m/s 750 mmHg 20%
    10:00 +43°C° 0 mm 3 m/s 750 mmHg 20%
    11:00 +44°C° 0 mm 3 m/s 750 mmHg 19%
    12:00 +44°C° 0 mm 3 m/s 750 mmHg 19%
    13:00 +45°C° 0 mm 3 m/s 749 mmHg 19%
    14:00 +44°C° 0 mm 3 m/s 749 mmHg 20%
    15:00 +43°C° 0 mm 3 m/s 748 mmHg 22%
    16:00 +43°C° 0 mm 3 m/s 748 mmHg 23%
    17:00 +42°C° 0 mm 3 m/s 748 mmHg 23%
    18:00 +40°C° 0 mm 2 m/s 748 mmHg 23%
    19:00 +40°C° 0 mm 2 m/s 748 mmHg 23%
    20:00 +39°C° 0 mm 2 m/s 748 mmHg 26%
    21:00 +38°C° 0 mm 2 m/s 748 mmHg 29%
    22:00 +37°C° 0 mm 2 m/s 749 mmHg 31%
    23:00 +36°C° 0 mm 2 m/s 749 mmHg 32%

    Poimâine, 30 Mai, Sâmbătă

    Timp Temperatura Precipitaţii Vânt Presiune Umiditate
    00:00 +35°C° 0 mm 1 m/s 748 mmHg 32%
    01:00 +34°C° 0 mm 1 m/s 748 mmHg 33%
    02:00 +34°C° 0 mm 1 m/s 748 mmHg 33%
    03:00 +35°C° 0 mm 2 m/s 748 mmHg 32%
    04:00 +35°C° 0 mm 3 m/s 748 mmHg 32%
    05:00 +36°C° 0 mm 2 m/s 748 mmHg 28%
    06:00 +37°C° 0 mm 2 m/s 749 mmHg 25%
    07:00 +39°C° 0 mm 2 m/s 749 mmHg 21%
    08:00 +40°C° 0 mm 2 m/s 750 mmHg 21%
    09:00 +42°C° 0 mm 3 m/s 750 mmHg 20%
    10:00 +44°C° 0 mm 3 m/s 750 mmHg 20%
    11:00 +44°C° 0 mm 3 m/s 750 mmHg 20%
    12:00 +44°C° 0 mm 3 m/s 750 mmHg 21%
    13:00 +44°C° 0 mm 4 m/s 750 mmHg 22%
    14:00 +44°C° 0 mm 3 m/s 749 mmHg 23%
    15:00 +43°C° 0 mm 3 m/s 749 mmHg 25%
    16:00 +42°C° 0 mm 2 m/s 748 mmHg 27%
    17:00 +41°C° 0 mm 2 m/s 748 mmHg 27%
    18:00 +41°C° 0 mm 2 m/s 748 mmHg 28%
    19:00 +40°C° 0 mm 2 m/s 748 mmHg 28%
    20:00 +39°C° 0 mm 2 m/s 749 mmHg 31%
    21:00 +37°C° 0 mm 1 m/s 749 mmHg 33%
    22:00 +36°C° 0 mm 1 m/s 750 mmHg 36%
    23:00 +36°C° 0 mm 2 m/s 750 mmHg 37%

    31 Mai, Duminică

    Timp Temperatura Precipitaţii Vânt Presiune Umiditate
    00:00 +36°C° 0 mm 2 m/s 750 mmHg 38%
    01:00 +35°C° 0 mm 3 m/s 749 mmHg 39%
    02:00 +35°C° 0 mm 3 m/s 749 mmHg 37%
    03:00 +35°C° 0 mm 3 m/s 749 mmHg 34%
    04:00 +35°C° 0 mm 3 m/s 749 mmHg 32%
    05:00 +36°C° 0 mm 3 m/s 750 mmHg 31%
    06:00 +37°C° 0 mm 3 m/s 750 mmHg 30%
    07:00 +37°C° 0 mm 3 m/s 750 mmHg 28%
    08:00 +40°C° 0 mm 4 m/s 751 mmHg 26%
    09:00 +42°C° 0 mm 4 m/s 751 mmHg 24%
    10:00 +43°C° 0 mm 4 m/s 751 mmHg 22%
    11:00 +43°C° 0 mm 4 m/s 751 mmHg 23%
    12:00 +43°C° 0 mm 4 m/s 751 mmHg 24%
    13:00 +43°C° 0 mm 4 m/s 750 mmHg 24%
    14:00 +43°C° 0 mm 3 m/s 750 mmHg 24%
    15:00 +43°C° 0 mm 3 m/s 750 mmHg 25%
    16:00 +42°C° 0 mm 2 m/s 749 mmHg 25%
    17:00 +41°C° 0 mm 2 m/s 749 mmHg 24%
    18:00 +41°C° 0 mm 2 m/s 749 mmHg 22%
    19:00 +40°C° 0 mm 1 m/s 749 mmHg 21%
    20:00 +39°C° 0 mm 2 m/s 749 mmHg 22%
    21:00 +39°C° 0 mm 2 m/s 750 mmHg 22%
    22:00 +38°C° 0 mm 2 m/s 750 mmHg 22%
    23:00 +38°C° 0 mm 2 m/s 750 mmHg 24%

    1 Iunie, Luni

    Timp Temperatura Precipitaţii Vânt Presiune Umiditate
    00:00 +37°C° 0 mm 2 m/s 750 mmHg 25%
    01:00 +37°C° 0 mm 3 m/s 749 mmHg 26%
    02:00 +36°C° 0 mm 3 m/s 749 mmHg 29%
    03:00 +35°C° 0 mm 3 m/s 749 mmHg 31%
    04:00 +35°C° 0 mm 4 m/s 749 mmHg 34%
    05:00 +35°C° 0 mm 4 m/s 749 mmHg 33%
    06:00 +36°C° 0 mm 4 m/s 750 mmHg 32%
    07:00 +37°C° 0 mm 4 m/s 750 mmHg 32%
    08:00 +38°C° 0 mm 4 m/s 750 mmHg 29%
    09:00 +41°C° 0 mm 4 m/s 751 mmHg 26%
    10:00 +42°C° 0 mm 5 m/s 751 mmHg 23%
    11:00 +43°C° 0 mm 5 m/s 751 mmHg 26%
    12:00 +43°C° 0 mm 5 m/s 750 mmHg 28%
    13:00 +43°C° 0 mm 5 m/s 750 mmHg 30%
    14:00 +43°C° 0 mm 5 m/s 750 mmHg 29%
    15:00 +43°C° 0 mm 5 m/s 749 mmHg 27%
    16:00 +44°C° 0 mm 4 m/s 749 mmHg 25%
    17:00 +42°C° 0 mm 4 m/s 749 mmHg 27%
    18:00 +41°C° 0 mm 4 m/s 748 mmHg 29%
    19:00 +39°C° 0 mm 3 m/s 748 mmHg 31%
    20:00 +38°C° 0 mm 3 m/s 749 mmHg 32%
    21:00 +37°C° 0 mm 3 m/s 749 mmHg 33%
    22:00 +37°C° 0 mm 3 m/s 750 mmHg 35%
    23:00 +36°C° 0 mm 2 m/s 749 mmHg 37%

    2 Iunie, Marţi

    Timp Temperatura Precipitaţii Vânt Presiune Umiditate
    00:00 +35°C° 0 mm 2 m/s 749 mmHg 39%
    01:00 +35°C° 0 mm 2 m/s 749 mmHg 41%
    02:00 +34°C° 0 mm 2 m/s 748 mmHg 42%
    03:00 +34°C° 0 mm 2 m/s 748 mmHg 43%
    04:00 +34°C° 0 mm 3 m/s 748 mmHg 45%
    05:00 +34°C° 0 mm 3 m/s 748 mmHg 42%
    06:00 +35°C° 0 mm 3 m/s 749 mmHg 39%
    07:00 +36°C° 0 mm 3 m/s 749 mmHg 36%
    08:00 +38°C° 0 mm 3 m/s 749 mmHg 33%
    09:00 +41°C° 0 mm 4 m/s 750 mmHg 29%
    10:00 +42°C° 0 mm 4 m/s 750 mmHg 26%
    11:00 +43°C° 0 mm 4 m/s 750 mmHg 26%
    12:00 +44°C° 0 mm 4 m/s 750 mmHg 25%
    13:00 +45°C° 0 mm 4 m/s 749 mmHg 25%
    14:00 +44°C° 0 mm 4 m/s 749 mmHg 26%
    15:00 +44°C° 0 mm 4 m/s 749 mmHg 27%
    16:00 +43°C° 0 mm 4 m/s 748 mmHg 29%
    17:00 +42°C° 0 mm 3 m/s 748 mmHg 32%
    18:00 +40°C° 0 mm 3 m/s 748 mmHg 34%
    19:00 +38°C° 0 mm 3 m/s 748 mmHg 37%
    20:00 +38°C° 0 mm 3 m/s 748 mmHg 39%
    21:00 +37°C° 0 mm 2 m/s 748 mmHg 41%
    22:00 +36°C° 0 mm 2 m/s 749 mmHg 43%
    23:00 +36°C° 0 mm 3 m/s 748 mmHg 41%
    Arată mai mult